Content
SEND FEEDBACK

Daily
Averages
Monthly
Summary
United States of America

BAYARD, NEW MEXICO


Home > North America > United States > New Mexico
Elevation: 4330 feet     Latitude: 32 16N     Longitude: 107 45W

WEATHER
 
SELECT A DAY
Number of Records: 145,675;   Date Range: 1/1/95 - 12/26/14
 
SHARE

PRINT THIS DATA

[ ← Previous Day ]
WEATHER ALMANAC - FEBRUARY 13, 2013
[ Next Day → ]
[ °C ]   °F
Weather ElementAverageHighLow
Temperature36.8 °F53.1 °F (3:53 pm)18 °F (5:53 am)
Dewpoint10 °F12 °F (2:53 am)7 °F (6:53 am)
Humidity37.5 %65 % (3:53 am)17 % (3:53 pm)
Barometer30.11 in30.19 in (8:53 am)30.03 in (2:53 pm)
Wind Speed5.1 mph12.7 mph (4:53 pm)
Wind Gust16.1 mph (2:53 pm)
Weather ElementAverage
Visibility10 mi
Wind DirectionSSW (186.5 °)

Weather ElementTotal
Precipitation---
Heating Degree Days29.5 (Base 65)
Averaged from 23 records on February 13, 2013
WEATHER CONDITIONS BREAKOUT
WIND DIRECTION BREAKOUT
WEATHER BY HOUR - FEBRUARY 13, 2013
[ °C ]   °F
Local TimeTemperatureDewpointHumidityBarometerVisibilityWind DirectionWind SpeedGust SpeedPrecipitationEventsConditions
1:53 AM24.1 °F10.9 °F57 %30.14 in10.0 miWSW (240°)5.8 mphClear
2:53 AM24.1 °F12.0 °F60 %30.14 in10.0 miWest (270°)3.5 mphClear
3:53 AM19.0 °F9.0 °F65 %30.14 in10.0 miCalmClear
4:53 AM19.0 °F9.0 °F65 %30.13 in10.0 miNW (310°)4.6 mphClear
5:53 AM18.0 °F8.1 °F65 %30.15 in10.0 miNW (320°)4.6 mphClear
6:53 AM18.0 °F7.0 °F62 %30.17 in10.0 miCalmClear
7:53 AM21.9 °F9.0 °F58 %30.18 in10.0 miCalmClear
8:53 AM32.0 °F10.9 °F42 %30.19 in10.0 miSW (220°)3.5 mphClear
9:53 AM37.0 °F12.0 °F36 %30.19 in10.0 miCalmClear
10:53 AM43.0 °F10.9 °F27 %30.17 in10.0 miCalm
11:53 AM46.0 °F10.0 °F23 %30.14 in10.0 miCalmClear
12:53 PM50.0 °F10.0 °F20 %30.09 in10.0 miWSW (240°)8.1 mphClear
1:53 PM51.1 °F9.0 °F18 %30.06 in10.0 miWSW (250°)10.4 mphClear
2:53 PM52.0 °F9.0 °F18 %30.03 in10.0 miSW (220°)9.2 mph16.1 mphClear
3:53 PM53.1 °F9.0 °F17 %30.03 in10.0 miWest (260°)6.9 mph16.1 mphClear
4:53 PM53.1 °F10.0 °F18 %30.03 in10.0 miWSW (250°)12.7 mphClear
5:53 PM50.0 °F10.0 °F20 %30.04 in10.0 miSW (230°)8.1 mphClear
6:53 PM45.0 °F10.9 °F25 %30.07 in10.0 miSW (230°)8.1 mphClear
7:53 PM42.1 °F10.0 °F27 %30.09 in10.0 miWSW (240°)6.9 mphClear
8:53 PM39.9 °F12.0 °F32 %30.06 in10.0 miWest (280°)8.1 mphClear
9:53 PM39.9 °F12.0 °F32 %30.06 in10.0 miWNW (290°)8.1 mphClear
10:53 PM37.0 °F10.9 °F34 %30.05 in10.0 miWest (280°)3.5 mphClear
11:53 PM30.0 °F9.0 °F41 %30.07 in10.0 miSSE (160°)4.6 mphClear
Hourly data recorded from KDMN, located miles away from Bayard, New Mexico







STORIES FROM OUR PARTNERS